#timestamp,LO_Frequency,Hit,StdDev 
1542538815.9,286047002.3,N
1542538835.7,286046999.8,N
1542538855.5,286047000.3,N
1542538875.4,286047000.0,N
1542538895.2,286046998.1,N
1542538915.1,286046998.1,N
1542538916.0,286046998.1,N
1542538935.8,286047000.7,N
1542538955.6,286047000.2,N
1542538975.5,286046999.8,N
1542538995.3,286047002.7,N
1542539015.1,286046998.5,N
1542539035.9,286047001.0,N
1542539055.7,286047001.1,N
1542539075.6,286047001.1,N
1542539095.4,286047002.8,N
1542539115.2,286046999.7,N
1542539135.1,286047002.1,N
1542539136.0,286047002.1,N
1542539155.8,286047002.5,N
1542539175.6,286047002.8,N
1542539195.5,286047000.6,N
1542539215.6,286047000.5,N
1542539235.5,286047002.1,N
1542539255.3,286047002.5,N
1542539275.2,286047002.7,N
1542539295.9,286047001.9,N
1542539315.7,286047002.4,N
1542539335.0,286047002.0,N
1542539335.9,286047002.0,N
1542539355.8,286046999.9,N
1542539375.6,286047000.0,N
1542539395.5,286047000.1,N
1542539415.3,286047000.0,N
1542539435.1,286047002.7,N
1542539455.9,286047002.4,N
1542539475.7,286047001.9,N
1542539495.5,286047000.4,N
1542539515.4,286047000.1,N
1542539535.2,286047002.2,N
1542539555.1,286047002.2,N
1542539556.0,286047002.2,N
1542539575.8,286047004.4,Y
1542539595.6,286047000.3,P
1542539615.5,286047000.4,N
1542539635.3,286047000.5,N
1542539655.2,286047000.6,N
1542539675.9,286047000.5,N
1542539695.7,286046999.9,N
1542539715.6,286047002.2,Y
1542539735.4,286047000.4,P
1542539755.2,286047000.2,N
1542539775.1,286047000.6,P
1542539776.0,286047000.6,Y
1542539795.8,286046999.2,P
1542539815.7,286046999.1,N
1542539835.5,286046998.4,N
1542539855.3,286046999.0,N
1542539875.2,286046998.8,N
1542539895.0,286046998.5,N
1542539895.9,286046998.5,N
1542539915.8,286047000.9,N
1542539935.6,286047002.7,Y
1542539955.4,286047002.3,P
1542539975.3,286047002.1,N
1542539995.1,286047001.3,N
1542540015.8,286047000.2,N
1542540035.7,286047000.0,N
1542540055.5,286047000.0,N
1542540075.3,286046999.8,N
1542540095.2,286047001.0,N
1542540115.0,286047000.6,N
1542540115.9,286047000.6,N
1542540135.8,286047000.8,N
1542540155.6,286046998.1,N
1542540175.4,286047000.6,N
1542540195.3,286047001.0,N
1542540215.1,286047000.0,N
1542540235.9,286047000.1,N
1542540255.7,286047000.7,N
1542540275.5,286047000.4,N
1542540295.4,286047002.1,N
1542540315.2,286047002.3,N
1542540335.0,286046999.8,N
1542540335.9,286046999.8,N
1542540355.8,286047000.8,N
1542540375.6,286047001.1,N
1542540395.4,286047000.2,N
1542540415.3,286046999.7,N
1542540435.1,286047000.5,N
1542540455.9,286047001.1,N
1542540475.7,286047000.6,N
1542540495.5,286046999.7,N
1542540515.4,286047002.8,Y
1542540535.2,286046998.1,P
1542540555.0,286046998.3,N
1542540556.0,286046998.3,N
1542540575.8,286046998.1,N
1542540595.6,286047001.1,N
1542540615.5,286047000.0,N
1542540635.3,286047001.1,N
1542540655.1,286047001.2,N
1542540675.9,286047000.7,N
1542540695.7,286046999.7,N
1542540715.6,286047001.0,N
1542540735.4,286047000.6,N
1542540755.2,286047000.1,N
1542540775.1,286046998.1,N
1542540776.0,286046998.1,N
1542540795.8,286046998.6,N
1542540815.6,286047000.6,N
1542540835.5,286047001.2,N
1542540855.3,286047000.4,N
1542540875.2,286046998.2,N
1542540895.9,286047000.4,N
1542540915.7,286047001.2,N
1542540935.6,286046998.3,N
1542540955.4,286046999.0,N
1542540975.2,286046998.3,N
1542540995.1,286046999.3,N
1542540996.0,286046999.3,N
1542541015.8,286046998.1,N
1542541035.7,286046998.6,N
1542541055.5,286047000.5,N
1542541075.3,286046998.2,N
1542541095.2,286046998.6,N
1542541115.0,286046998.8,N
1542541115.9,286046998.8,N
1542541135.7,286047000.4,N
1542541155.6,286047000.0,N
1542541175.4,286046998.1,N
1542541195.3,286047000.7,N
1542541215.1,286047000.5,N
1542541235.9,286047001.2,N
1542541255.7,286046998.1,N
1542541275.5,286046998.6,N
1542541295.4,286047000.4,N
1542541315.2,286047001.1,N
1542541335.0,286047001.2,N
1542541335.9,286047001.2,N
1542541355.8,286047000.3,N
1542541375.6,286047000.4,N
1542541395.5,286046998.2,N
1542541445.3,286046998.4,E
1542541455.3,286047000.5,N
1542541475.1,286047000.3,P
1542541476.0,286047000.3,N
1542541495.8,286047002.4,Y
1542541515.7,286047002.1,P
1542541535.5,286047002.8,P
1542541555.4,286047000.3,N
1542541575.2,286047000.2,N
1542541595.0,286047000.1,N
1542541595.9,286047000.1,N
1542541615.8,286046999.8,N
1542541635.6,286047000.4,N
1542541655.5,286046999.8,N
1542541675.3,286047002.7,N
1542541695.1,286047003.6,Y
1542541715.9,286047001.5,P
1542541735.7,286047002.0,P
1542541755.5,286047004.1,P
1542541775.4,286047003.8,Y
1542541795.2,286047002.2,P
1542541815.1,286047002.8,P
1542541816.0,286047002.8,P
1542541835.8,286047002.5,Y
1542541855.7,286046996.6,P
1542541875.5,286046999.1,N
1542541895.3,286046998.6,N
1542541915.2,286046998.8,N
1542541935.0,286046996.7,N
1542541935.9,286046996.7,N
1542541955.7,286047003.5,N
1542541975.6,286047003.0,N
1542541995.4,286047008.3,Y
1542542015.3,286047004.9,P
1542542035.1,286047005.4,N
1542542055.8,286047004.3,N
1542542075.7,286047001.5,N
1542542095.5,286047002.4,N
1542542115.4,286047002.5,N
1542542135.2,286047000.1,N
1542542155.0,286047002.7,N
1542542155.9,286047002.7,N
1542542175.8,286047006.6,Y
1542542195.4,286047007.3,P
1542542215.2,286047013.5,P
1542542235.0,286047015.2,P
1542542235.9,286047015.2,Y
1542542255.8,286047000.9,P
1542542275.6,286046997.8,N
1542542295.5,286046993.9,N
1542542315.3,286046991.8,N
1542542335.1,286046990.1,N
1542542355.9,286046990.4,N
1542542375.7,286046991.3,N
1542542395.6,286046990.5,N
